Regional Weather Roundup
Issued by NWS Little Rock, AR

Home | Current Version | Previous Version | Text Only | Print | Product List | Glossary Off
Versions: 1 2 3 4 5 6 7 8 9 10 11 12 13 14 15 16 17 18 19 20 21 22 23 24 25 26 27 28 29 30 31 32 33 34 35 36 37 38 39 40 41 42 43 44 45 46 47 48 49 50

000
ASUS44 KLZK 270905
RWRLZK

WEATHER ROUNDUP FOR ARKANSAS
NATIONAL WEATHER SERVICE LITTLE ROCK AR
400 AM CDT SUN JUL 27 2014

NOTE: "FAIR" INDICATES FEW OR NO CLOUDS BELOW 12,000 FEET WITH NO
SIGNIFICANT WEATHER AND/OR OBSTRUCTIONS TO VISIBILITY.

ARZ001-003-010-029-271000-
NORTHWEST ARKANSAS

CITY           SKY/WX    TMP DP  RH WIND       PRES   REMARKS
FAYETTEVILLE   CLEAR     77  70  79 SW8       29.98F
FORT SMITH     PTCLDY    76  72  87 NE3       29.96R
HARRISON       CLEAR     79  69  71 SW7       29.97S
ROGERS         CLEAR     77  69  76 S10       29.99S
SILOAM SPGS    CLEAR     73  64  73 S7        29.99S
HIGHFILL       CLEAR     76  70  82 SW7       29.98S
$$

ARZ004-005-016-271000-
NORTH CENTRAL ARKANSAS

CITY           SKY/WX    TMP DP  RH WIND       PRES   REMARKS
BATESVILLE     PTCLDY    81  73  78 SW9       29.95R HX  85
FLIPPIN        CLEAR     77  72  83 SW3       29.94F
MTN HOME       CLEAR     75  72  90 W3        29.94S
$$

ARZ040-041-271000-
WEST CENTRAL ARKANSAS

CITY           SKY/WX    TMP DP  RH WIND       PRES   REMARKS
MENA           CLEAR     79  72  78 CALM      30.02S
MOUNT IDA      CLEAR     74  72  93 CALM      29.98R
$$

ARZ009-017-025-026-028-271000-
NORTHEAST ARKANSAS

CITY           SKY/WX    TMP DP  RH WIND       PRES   REMARKS
CORNING        FAIR      77  77 100 SW10      29.91F
JONESBORO      MOCLDY    80  73  79 SW12      29.93S
NEWPORT        PTCLDY    78  75  90 SW7       29.95S
WALNUT RIDGE   PTCLDY    77  73  88 SW6       29.92F
BLYTHEVILLE    CLOUDY    78  76  93 SW6       29.94S
$$

ARZ022-023-033-042-044-271000-
CENTRAL ARKANSAS

CITY           SKY/WX    TMP DP  RH WIND       PRES   REMARKS
LITTLE ROCK    PTCLDY    78  73  84 SW7       29.96F
N LITTLE ROCK    N/A     79  74  85 SW7       29.96F
JACKSONVILLE   CLEAR     75  73  91 CALM      29.96S
SEARCY         CLEAR     76  74  93 W5        29.96S
HOT SPRINGS    CLEAR     75  73  93 NW3       29.99S
RUSSELLVILLE   CLEAR     73  71  93 E3        29.95S FOG
CLINTON        FAIR      72  72 100 CALM      29.97S FOG
$$

ARZ036-271000-
EAST ARKANSAS

CITY           SKY/WX    TMP DP  RH WIND       PRES   REMARKS
WEST MEMPHIS   MOCLDY    79  76  90 SW6       29.94S
$$

ARZ050-053-066-070-073-271000-
SOUTHWEST ARKANSAS

CITY           SKY/WX    TMP DP  RH WIND       PRES   REMARKS
ARKADELPHIA    FAIR      75  75 100 CALM      29.99R FOG
CAMDEN         CLEAR     77  72  83 SW5       29.98S
TEXARKANA      CLEAR     78  75  90 SW9       29.99S
EL DORADO      CLEAR     76  74  93 SW7       30.00S
DE QUEEN       CLEAR     72  72 100 CALM      29.97S FOG
$$

ARZ056-057-069-271000-
SOUTHEAST ARKANSAS

CITY           SKY/WX    TMP DP  RH WIND       PRES   REMARKS
PINE BLUFF     PTCLDY    77  73  87 SW3       29.98S
STUTTGART      CLEAR     75  72  88 SW6       29.97S
MONTICELLO     CLEAR     79  73  82 SW6       29.99R

$$





USA.gov is the U.S. government's official web portal to all federal, state and local government web resources and services.